Time,TemperatureF,DewpointF,PressureIn,WindDirection,WindDirectionDegrees,WindSpeedMPH,WindSpeedGustMPH,Humidity,HourlyPrecipIn,Conditions,Clouds,dailyrainin,SoftwareType,DateUTC
2013-06-25 00:02:00,79.3,67.8,-100.00,SE,135,0.0,2.0,68,0.00,,,0.00,meteohub,2013-06-25 05:02:00,
2013-06-25 00:04:00,79.3,67.8,-100.00,NE,45,4.0,4.0,68,0.00,,,0.00,meteohub,2013-06-25 05:04:00,
2013-06-25 00:06:00,79.3,68.4,-100.00,ESE,113,0.0,2.0,69,0.00,,,0.00,meteohub,2013-06-25 05:06:00,
2013-06-25 00:08:00,79.2,67.6,-100.00,ENE,68,3.0,3.0,68,0.00,,,0.00,meteohub,2013-06-25 05:08:00,
2013-06-25 00:10:00,79.2,67.6,-100.00,ENE,68,3.0,4.0,68,0.00,,,0.00,meteohub,2013-06-25 05:10:00,
2013-06-25 00:12:00,79.2,67.6,-100.00,ENE,68,3.0,4.0,68,0.00,,,0.00,meteohub,2013-06-25 05:12:00,
2013-06-25 00:16:00,79.0,68.4,-100.00,ESE,113,1.0,4.0,70,0.00,,,0.00,meteohub,2013-06-25 05:16:00,
2013-06-25 00:17:00,79.0,68.4,-100.00,ESE,113,1.0,4.0,70,0.00,,,0.00,meteohub,2013-06-25 05:17:00,
2013-06-25 00:18:00,79.0,68.4,-100.00,ESE,113,3.0,4.0,70,0.00,,,0.00,meteohub,2013-06-25 05:18:00,
2013-06-25 00:20:00,79.0,68.4,-100.00,SSE,158,1.0,3.0,70,0.00,,,0.00,meteohub,2013-06-25 05:20:00,
2013-06-25 00:22:00,78.6,68.4,-100.00,South,180,2.0,3.0,71,0.00,,,0.00,meteohub,2013-06-25 05:22:00,
2013-06-25 00:24:00,78.6,68.4,-100.00,South,180,2.0,3.0,71,0.00,,,0.00,meteohub,2013-06-25 05:24:00,
2013-06-25 00:26:00,78.6,68.4,-100.00,East,90,6.0,6.0,71,0.00,,,0.00,meteohub,2013-06-25 05:26:00,
2013-06-25 00:28:00,78.6,68.4,-100.00,ESE,113,3.0,3.0,71,0.00,,,0.00,meteohub,2013-06-25 05:28:00,
2013-06-25 00:30:00,78.6,68.4,-100.00,ESE,113,3.0,6.0,71,0.00,,,0.00,meteohub,2013-06-25 05:30:00,
2013-06-25 00:32:00,78.6,68.4,-100.00,SSE,158,10.0,10.0,71,0.00,,,0.00,meteohub,2013-06-25 05:32:00,
2013-06-25 00:34:00,78.6,68.4,-100.00,ENE,68,9.0,9.0,71,0.00,,,0.00,meteohub,2013-06-25 05:34:00,
2013-06-25 00:38:00,78.4,68.7,-100.00,South,180,1.0,10.0,72,0.00,,,0.00,meteohub,2013-06-25 05:38:00,
2013-06-25 00:40:00,78.4,68.7,-100.00,South,180,1.0,10.0,72,0.00,,,0.00,meteohub,2013-06-25 05:40:00,
2013-06-25 00:42:00,78.4,68.7,-100.00,South,180,1.0,10.0,72,0.00,,,0.00,meteohub,2013-06-25 05:42:00,
2013-06-25 00:44:00,78.4,68.7,-100.00,ENE,68,1.0,10.0,72,0.00,,,0.00,meteohub,2013-06-25 05:44:00,
2013-06-25 00:46:00,78.1,68.4,-100.00,SSW,203,3.0,10.0,72,0.00,,,0.00,meteohub,2013-06-25 05:46:00,
2013-06-25 00:47:00,78.1,68.4,-100.00,SSW,203,3.0,10.0,72,0.00,,,0.00,meteohub,2013-06-25 05:47:00,
2013-06-25 00:50:00,78.1,68.7,-100.00,NE,45,3.0,3.0,73,0.00,,,0.00,meteohub,2013-06-25 05:50:00,
2013-06-25 00:52:00,77.9,68.5,-100.00,ENE,68,2.0,3.0,73,0.00,,,0.00,meteohub,2013-06-25 05:52:00,
2013-06-25 00:54:00,77.9,68.5,-100.00,ENE,68,2.0,3.0,73,0.00,,,0.00,meteohub,2013-06-25 05:54:00,
2013-06-25 00:56:00,77.7,68.4,-100.00,SSW,203,4.0,4.0,73,0.00,,,0.00,meteohub,2013-06-25 05:56:00,
2013-06-25 01:00:00,77.7,68.7,-100.00,SSW,203,0.0,4.0,74,0.00,,,0.00,meteohub,2013-06-25 06:00:00,
2013-06-25 01:02:00,77.7,68.7,-100.00,NE,45,0.0,4.0,74,0.00,,,0.00,meteohub,2013-06-25 06:02:00,
2013-06-25 01:08:00,77.5,68.5,-100.00,SSW,203,0.0,4.0,74,0.00,,,0.00,meteohub,2013-06-25 06:08:00,
2013-06-25 01:10:00,77.5,68.5,-100.00,SSW,203,0.0,4.0,74,0.00,,,0.00,meteohub,2013-06-25 06:10:00,
2013-06-25 01:12:00,77.5,68.5,-100.00,ENE,68,3.0,4.0,74,0.00,,,0.00,meteohub,2013-06-25 06:12:00,
2013-06-25 01:18:00,77.5,68.5,-100.00,SSW,203,3.0,3.0,74,0.00,,,0.00,meteohub,2013-06-25 06:18:00,
2013-06-25 01:24:00,77.4,68.9,-100.00,WNW,293,1.0,3.0,75,0.00,,,0.00,meteohub,2013-06-25 06:24:00,
2013-06-25 01:26:00,77.4,68.9,-100.00,SSE,158,2.0,3.0,75,0.00,,,0.00,meteohub,2013-06-25 06:26:00,
2013-06-25 01:28:00,77.2,68.7,-100.00,ESE,113,1.0,3.0,75,0.00,,,0.00,meteohub,2013-06-25 06:28:00,
2013-06-25 01:30:00,77.2,68.7,-100.00,SSW,203,2.0,3.0,75,0.00,,,0.00,meteohub,2013-06-25 06:30:00,
2013-06-25 01:32:00,77.2,68.7,-100.00,SSW,203,2.0,3.0,75,0.00,,,0.00,meteohub,2013-06-25 06:32:00,
2013-06-25 01:38:00,77.2,68.7,-100.00,SW,225,4.0,4.0,75,0.00,,,0.00,meteohub,2013-06-25 06:38:00,
2013-06-25 01:43:00,77.2,68.7,-100.00,South,180,1.0,4.0,75,0.00,,,0.00,meteohub,2013-06-25 06:43:00,
2013-06-25 01:45:00,77.2,68.7,-100.00,South,180,1.0,4.0,75,0.00,,,0.00,meteohub,2013-06-25 06:45:00,
2013-06-25 01:49:00,77.2,68.7,-100.00,SE,135,0.0,4.0,75,0.00,,,0.00,meteohub,2013-06-25 06:49:00,
2013-06-25 01:51:00,77.2,68.7,-100.00,SE,135,0.0,4.0,75,0.00,,,0.00,meteohub,2013-06-25 06:51:00,
2013-06-25 01:53:00,77.2,68.7,-100.00,SE,135,0.0,4.0,75,0.00,,,0.00,meteohub,2013-06-25 06:53:00,
2013-06-25 01:57:00,77.2,69.1,-100.00,SSW,203,2.0,2.0,76,0.00,,,0.00,meteohub,2013-06-25 06:57:00,
2013-06-25 01:59:00,77.0,68.5,-100.00,NE,45,3.0,3.0,75,0.00,,,0.00,meteohub,2013-06-25 06:59:00,
2013-06-25 02:02:00,77.0,68.5,-100.00,NE,45,3.0,4.0,75,0.00,,,0.00,meteohub,2013-06-25 07:02:00,
2013-06-25 02:07:00,77.0,68.5,-100.00,South,180,3.0,4.0,75,0.00,,,0.00,meteohub,2013-06-25 07:07:00,
2013-06-25 02:09:00,77.0,68.9,-100.00,ESE,113,2.0,4.0,76,0.00,,,0.00,meteohub,2013-06-25 07:09:00,
2013-06-25 02:11:00,77.0,68.9,-100.00,SSE,158,2.0,4.0,76,0.00,,,0.00,meteohub,2013-06-25 07:11:00,
2013-06-25 02:13:00,77.0,68.9,-100.00,SSE,158,2.0,4.0,76,0.00,,,0.00,meteohub,2013-06-25 07:13:00,
2013-06-25 02:15:00,77.0,68.9,-100.00,SSE,158,2.0,4.0,76,0.00,,,0.00,meteohub,2013-06-25 07:15:00,
2013-06-25 02:17:00,76.8,68.7,-100.00,SSW,203,5.0,5.0,76,0.00,,,0.00,meteohub,2013-06-25 07:17:00,
2013-06-25 02:21:00,76.8,69.1,-100.00,SSE,158,2.0,5.0,77,0.00,,,0.00,meteohub,2013-06-25 07:21:00,
2013-06-25 02:23:00,76.8,69.1,-100.00,West,270,1.0,5.0,77,0.00,,,0.00,meteohub,2013-06-25 07:23:00,
2013-06-25 02:29:00,76.8,69.1,-100.00,ESE,113,2.0,5.0,77,0.00,,,0.00,meteohub,2013-06-25 07:29:00,
2013-06-25 02:31:00,76.8,69.1,-100.00,SSE,158,2.0,5.0,77,0.00,,,0.00,meteohub,2013-06-25 07:31:00,
2013-06-25 02:33:00,76.8,69.1,-100.00,ESE,113,2.0,5.0,77,0.00,,,0.00,meteohub,2013-06-25 07:33:00,
2013-06-25 02:37:00,76.8,69.1,-100.00,WSW,248,4.0,4.0,77,0.00,,,0.00,meteohub,2013-06-25 07:37:00,
2013-06-25 02:41:00,76.8,69.1,-100.00,SW,225,2.0,4.0,77,0.00,,,0.00,meteohub,2013-06-25 07:41:00,
2013-06-25 02:43:00,76.8,69.1,-100.00,SW,225,2.0,4.0,77,0.00,,,0.00,meteohub,2013-06-25 07:43:00,
2013-06-25 02:45:00,76.8,69.1,-100.00,SW,225,2.0,6.0,77,0.00,,,0.00,meteohub,2013-06-25 07:45:00,
2013-06-25 02:47:00,76.8,69.1,-100.00,SW,225,2.0,6.0,77,0.00,,,0.00,meteohub,2013-06-25 07:47:00,
2013-06-25 02:49:00,76.6,68.9,-100.00,West,270,5.0,6.0,77,0.00,,,0.00,meteohub,2013-06-25 07:49:00,
2013-06-25 02:53:00,76.6,68.9,-100.00,SW,225,1.0,6.0,77,0.00,,,0.00,meteohub,2013-06-25 07:53:00,
2013-06-25 02:55:00,76.6,68.9,-100.00,East,90,3.0,7.0,77,0.00,,,0.00,meteohub,2013-06-25 07:55:00,
2013-06-25 02:57:00,76.6,68.9,-100.00,ESE,113,3.0,7.0,77,0.00,,,0.00,meteohub,2013-06-25 07:57:00,
2013-06-25 02:59:00,76.6,68.9,-100.00,ESE,113,3.0,7.0,77,0.00,,,0.00,meteohub,2013-06-25 07:59:00,
2013-06-25 03:01:00,76.6,68.9,-100.00,SW,225,3.0,7.0,77,0.00,,,0.00,meteohub,2013-06-25 08:01:00,
2013-06-25 03:03:00,76.6,68.9,-100.00,ESE,113,2.0,7.0,77,0.00,,,0.00,meteohub,2013-06-25 08:03:00,
2013-06-25 03:05:00,76.6,68.9,-100.00,East,90,4.0,7.0,77,0.00,,,0.00,meteohub,2013-06-25 08:05:00,
2013-06-25 03:07:00,76.6,68.9,-100.00,NE,45,4.0,7.0,77,0.00,,,0.00,meteohub,2013-06-25 08:07:00,
2013-06-25 03:11:00,76.5,68.7,-100.00,South,180,1.0,4.0,77,0.00,,,0.00,meteohub,2013-06-25 08:11:00,
2013-06-25 03:13:00,76.5,68.7,-100.00,South,180,1.0,4.0,77,0.00,,,0.00,meteohub,2013-06-25 08:13:00,
2013-06-25 03:15:00,76.3,68.2,-100.00,SW,225,4.0,4.0,76,0.00,,,0.00,meteohub,2013-06-25 08:15:00,
2013-06-25 03:17:00,76.3,68.2,-100.00,SW,225,4.0,4.0,76,0.00,,,0.00,meteohub,2013-06-25 08:17:00,
2013-06-25 03:21:00,76.3,68.5,-100.00,SE,135,4.0,5.0,77,0.00,,,0.00,meteohub,2013-06-25 08:21:00,
2013-06-25 03:23:00,76.3,68.5,-100.00,SSW,203,4.0,5.0,77,0.00,,,0.00,meteohub,2013-06-25 08:23:00,
2013-06-25 03:25:00,76.1,68.4,-100.00,SSW,203,9.0,9.0,77,0.00,,,0.00,meteohub,2013-06-25 08:25:00,
2013-06-25 03:29:00,76.1,68.4,-100.00,ESE,113,2.0,5.0,77,0.00,,,0.00,meteohub,2013-06-25 08:29:00,
2013-06-25 03:31:00,75.9,68.2,-100.00,SE,135,1.0,9.0,77,0.00,,,0.00,meteohub,2013-06-25 08:31:00,
2013-06-25 03:35:00,75.9,68.2,-100.00,WSW,248,4.0,9.0,77,0.00,,,0.00,meteohub,2013-06-25 08:35:00,
2013-06-25 03:39:00,75.9,68.2,-100.00,SSE,158,2.0,9.0,77,0.00,,,0.00,meteohub,2013-06-25 08:39:00,
2013-06-25 03:41:00,75.9,68.2,-100.00,SW,225,2.0,9.0,77,0.00,,,0.00,meteohub,2013-06-25 08:41:00,
2013-06-25 03:45:00,75.7,68.4,-100.00,ESE,113,7.0,7.0,78,0.00,,,0.00,meteohub,2013-06-25 08:45:00,
2013-06-25 03:47:00,75.7,68.4,-100.00,ESE,113,7.0,7.0,78,0.00,,,0.00,meteohub,2013-06-25 08:47:00,
2013-06-25 03:49:00,75.7,68.4,-100.00,SSW,203,8.0,8.0,78,0.00,,,0.00,meteohub,2013-06-25 08:49:00,
2013-06-25 03:53:00,75.7,68.4,-100.00,SSW,203,8.0,8.0,78,0.00,,,0.00,meteohub,2013-06-25 08:53:00,
2013-06-25 03:55:00,75.7,68.4,-100.00,SSW,203,8.0,8.0,78,0.00,,,0.00,meteohub,2013-06-25 08:55:00,
2013-06-25 03:57:00,75.7,68.4,-100.00,SSE,158,2.0,8.0,78,0.00,,,0.00,meteohub,2013-06-25 08:57:00,
2013-06-25 03:59:00,75.7,68.4,-100.00,SSW,203,2.0,8.0,78,0.00,,,0.00,meteohub,2013-06-25 08:59:00,
2013-06-25 04:01:00,75.7,68.4,-100.00,ENE,68,3.0,8.0,78,0.00,,,0.00,meteohub,2013-06-25 09:01:00,
2013-06-25 04:02:00,75.7,68.4,-100.00,ENE,68,3.0,8.0,78,0.00,,,0.00,meteohub,2013-06-25 09:02:00,
2013-06-25 04:03:00,75.7,68.4,-100.00,ENE,68,2.0,8.0,78,0.00,,,0.00,meteohub,2013-06-25 09:03:00,
2013-06-25 04:07:00,75.7,68.4,-100.00,SSW,203,6.0,8.0,78,0.00,,,0.00,meteohub,2013-06-25 09:07:00,
2013-06-25 04:09:00,75.6,68.2,-100.00,WSW,248,7.0,8.0,78,0.00,,,0.00,meteohub,2013-06-25 09:09:00,
2013-06-25 04:11:00,75.7,68.4,-100.00,SSE,158,2.0,8.0,78,0.00,,,0.00,meteohub,2013-06-25 09:11:00,
2013-06-25 04:13:00,75.7,68.4,-100.00,SSE,158,3.0,8.0,78,0.00,,,0.00,meteohub,2013-06-25 09:13:00,
2013-06-25 04:15:00,75.7,68.4,-100.00,SSE,158,1.0,7.0,78,0.00,,,0.00,meteohub,2013-06-25 09:15:00,
2013-06-25 04:17:00,75.7,68.4,-100.00,SSE,158,1.0,7.0,78,0.00,,,0.00,meteohub,2013-06-25 09:17:00,
2013-06-25 04:19:00,75.7,68.4,-100.00,SSE,158,2.0,7.0,78,0.00,,,0.00,meteohub,2013-06-25 09:19:00,
2013-06-25 04:23:00,75.7,68.4,-100.00,SSE,158,2.0,7.0,78,0.00,,,0.00,meteohub,2013-06-25 09:23:00,
2013-06-25 04:25:00,75.7,68.4,-100.00,SW,225,3.0,7.0,78,0.00,,,0.00,meteohub,2013-06-25 09:25:00,
2013-06-25 04:29:00,75.7,68.4,-100.00,SSW,203,2.0,7.0,78,0.00,,,0.00,meteohub,2013-06-25 09:29:00,
2013-06-25 04:31:00,75.7,68.4,-100.00,South,180,8.0,8.0,78,0.00,,,0.00,meteohub,2013-06-25 09:31:00,
2013-06-25 04:32:00,75.7,68.4,-100.00,South,180,8.0,8.0,78,0.00,,,0.00,meteohub,2013-06-25 09:32:00,
2013-06-25 04:33:00,75.7,68.4,-100.00,SW,225,6.0,6.0,78,0.00,,,0.00,meteohub,2013-06-25 09:33:00,
2013-06-25 04:36:00,75.7,68.4,-100.00,SSE,158,1.0,8.0,78,0.00,,,0.00,meteohub,2013-06-25 09:36:00,
2013-06-25 04:38:00,75.7,68.4,-100.00,SSE,158,1.0,8.0,78,0.00,,,0.00,meteohub,2013-06-25 09:38:00,
2013-06-25 04:40:00,75.7,68.4,-100.00,SSW,203,13.0,13.0,78,0.00,,,0.00,meteohub,2013-06-25 09:40:00,
2013-06-25 04:42:00,75.7,68.4,-100.00,ESE,113,0.0,13.0,78,0.00,,,0.00,meteohub,2013-06-25 09:42:00,
2013-06-25 04:46:00,75.7,68.4,-100.00,SSW,203,0.0,13.0,78,0.00,,,0.00,meteohub,2013-06-25 09:46:00,
2013-06-25 04:47:00,75.7,68.4,-100.00,SSW,203,0.0,13.0,78,0.00,,,0.00,meteohub,2013-06-25 09:47:00,
2013-06-25 04:48:00,75.6,68.5,-100.00,ENE,68,3.0,13.0,79,0.00,,,0.00,meteohub,2013-06-25 09:48:00,
2013-06-25 04:54:00,75.6,68.5,-100.00,South,180,1.0,13.0,79,0.00,,,0.00,meteohub,2013-06-25 09:54:00,
2013-06-25 04:56:00,75.6,68.5,-100.00,SW,225,2.0,13.0,79,0.00,,,0.00,meteohub,2013-06-25 09:56:00,
2013-06-25 04:58:00,75.6,68.5,-100.00,SW,225,2.0,13.0,79,0.00,,,0.00,meteohub,2013-06-25 09:58:00,
2013-06-25 05:00:00,75.6,68.5,-100.00,ESE,113,1.0,13.0,79,0.00,,,0.00,meteohub,2013-06-25 10:00:00,
2013-06-25 05:02:00,75.6,68.5,-100.00,South,180,2.0,3.0,79,0.00,,,0.00,meteohub,2013-06-25 10:02:00,
2013-06-25 05:04:00,75.6,68.5,-100.00,SSE,158,3.0,3.0,79,0.00,,,0.00,meteohub,2013-06-25 10:04:00,
2013-06-25 05:06:00,75.4,68.4,-100.00,SSE,158,2.0,3.0,79,0.00,,,0.00,meteohub,2013-06-25 10:06:00,
2013-06-25 05:08:00,75.4,68.4,-100.00,South,180,1.0,3.0,79,0.00,,,0.00,meteohub,2013-06-25 10:08:00,
2013-06-25 05:10:00,75.4,68.4,-100.00,South,180,2.0,3.0,79,0.00,,,0.00,meteohub,2013-06-25 10:10:00,
2013-06-25 05:14:00,75.4,68.4,-100.00,South,180,2.0,3.0,79,0.00,,,0.00,meteohub,2013-06-25 10:14:00,
2013-06-25 05:16:00,75.4,68.4,-100.00,SW,225,2.0,3.0,79,0.00,,,0.00,meteohub,2013-06-25 10:16:00,
2013-06-25 05:18:00,75.4,68.4,-100.00,ENE,68,2.0,3.0,79,0.00,,,0.00,meteohub,2013-06-25 10:18:00,
2013-06-25 05:22:00,75.4,68.4,-100.00,NW,315,2.0,2.0,79,0.00,,,0.00,meteohub,2013-06-25 10:22:00,
2013-06-25 05:24:00,75.4,68.4,-100.00,ENE,68,4.0,4.0,79,0.00,,,0.00,meteohub,2013-06-25 10:24:00,
2013-06-25 05:28:00,75.4,68.4,-100.00,SSW,203,2.0,4.0,79,0.00,,,0.00,meteohub,2013-06-25 10:28:00,
2013-06-25 05:30:00,75.4,68.4,-100.00,SSW,203,2.0,4.0,79,0.00,,,0.00,meteohub,2013-06-25 10:30:00,
2013-06-25 05:32:00,75.4,68.4,-100.00,South,180,0.0,11.0,79,0.00,,,0.00,meteohub,2013-06-25 10:32:00,
2013-06-25 05:34:00,75.4,68.4,-100.00,ENE,68,0.0,11.0,79,0.00,,,0.00,meteohub,2013-06-25 10:34:00,
2013-06-25 05:36:00,75.4,68.4,-100.00,SSW,203,3.0,11.0,79,0.00,,,0.00,meteohub,2013-06-25 10:36:00,
2013-06-25 05:38:00,75.4,68.4,-100.00,SSW,203,3.0,11.0,79,0.00,,,0.00,meteohub,2013-06-25 10:38:00,
2013-06-25 05:40:00,75.4,68.4,-100.00,South,180,3.0,11.0,79,0.00,,,0.00,meteohub,2013-06-25 10:40:00,
2013-06-25 05:42:00,75.4,68.4,-100.00,South,180,3.0,11.0,79,0.00,,,0.00,meteohub,2013-06-25 10:42:00,
2013-06-25 05:44:00,75.2,68.2,-100.00,SSW,203,0.0,11.0,79,0.00,,,0.00,meteohub,2013-06-25 10:44:00,
2013-06-25 05:46:00,75.2,68.2,-100.00,SSW,203,1.0,3.0,79,0.00,,,0.00,meteohub,2013-06-25 10:46:00,
2013-06-25 05:48:00,75.4,68.4,-100.00,South,180,4.0,4.0,79,0.00,,,0.00,meteohub,2013-06-25 10:48:00,
2013-06-25 05:54:00,75.2,68.2,-100.00,South,180,0.0,4.0,79,0.00,,,0.00,meteohub,2013-06-25 10:54:00,
2013-06-25 05:56:00,75.4,68.4,-100.00,SSE,158,0.0,4.0,79,0.00,,,0.00,meteohub,2013-06-25 10:56:00,
2013-06-25 06:00:00,75.2,68.2,-100.00,SSE,158,1.0,4.0,79,0.00,,,0.00,meteohub,2013-06-25 11:00:00,
2013-06-25 06:02:00,75.2,68.2,-100.00,SSE,158,1.0,4.0,79,0.00,,,0.00,meteohub,2013-06-25 11:02:00,
2013-06-25 06:04:00,75.4,68.4,-100.00,ESE,113,1.0,4.0,79,0.00,,,0.00,meteohub,2013-06-25 11:04:00,
2013-06-25 06:06:00,75.4,68.4,-100.00,ESE,113,1.0,2.0,79,0.00,,,0.00,meteohub,2013-06-25 11:06:00,
2013-06-25 06:12:00,75.4,68.4,-100.00,ENE,68,0.0,2.0,79,0.00,,,0.00,meteohub,2013-06-25 11:12:00,
2013-06-25 06:14:00,75.0,68.0,-100.00,SW,225,5.0,5.0,79,0.00,,,0.00,meteohub,2013-06-25 11:14:00,
2013-06-25 06:16:00,75.0,68.0,-100.00,SW,225,5.0,5.0,79,0.00,,,0.00,meteohub,2013-06-25 11:16:00,
2013-06-25 06:20:00,75.0,68.0,-100.00,WSW,248,2.0,5.0,79,0.00,,,0.00,meteohub,2013-06-25 11:20:00,
2013-06-25 06:22:00,75.0,68.0,-100.00,West,270,3.0,5.0,79,0.00,,,0.00,meteohub,2013-06-25 11:22:00,
2013-06-25 06:24:00,75.0,68.0,-100.00,West,270,3.0,5.0,79,0.00,,,0.00,meteohub,2013-06-25 11:24:00,
2013-06-25 06:26:00,75.0,68.0,-100.00,SSE,158,1.0,5.0,79,0.00,,,0.00,meteohub,2013-06-25 11:26:00,
2013-06-25 06:28:00,75.0,68.0,-100.00,SSE,158,2.0,5.0,79,0.00,,,0.00,meteohub,2013-06-25 11:28:00,
2013-06-25 06:32:00,75.0,68.0,-100.00,SW,225,2.0,5.0,79,0.00,,,0.00,meteohub,2013-06-25 11:32:00,
2013-06-25 06:36:00,75.0,68.0,-100.00,SW,225,4.0,4.0,79,0.00,,,0.00,meteohub,2013-06-25 11:36:00,
2013-06-25 06:40:00,75.0,68.0,-100.00,SSE,158,1.0,4.0,79,0.00,,,0.00,meteohub,2013-06-25 11:40:00,
2013-06-25 06:42:00,75.0,68.0,-100.00,SSE,158,1.0,4.0,79,0.00,,,0.00,meteohub,2013-06-25 11:42:00,
2013-06-25 06:47:00,75.0,68.0,-100.00,WSW,248,2.0,4.0,79,0.00,,,0.00,meteohub,2013-06-25 11:47:00,
2013-06-25 06:49:00,75.0,68.0,-100.00,SSE,158,3.0,4.0,79,0.00,,,0.00,meteohub,2013-06-25 11:49:00,
2013-06-25 06:51:00,75.0,68.0,-100.00,SSE,158,0.0,4.0,79,0.00,,,0.00,meteohub,2013-06-25 11:51:00,
2013-06-25 06:53:00,75.0,68.0,-100.00,SSW,203,0.0,4.0,79,0.00,,,0.00,meteohub,2013-06-25 11:53:00,
2013-06-25 06:55:00,75.0,68.0,-100.00,SSW,203,4.0,4.0,79,0.00,,,0.00,meteohub,2013-06-25 11:55:00,
2013-06-25 06:57:00,75.0,68.0,-100.00,South,180,2.0,3.0,79,0.00,,,0.00,meteohub,2013-06-25 11:57:00,
2013-06-25 06:59:00,75.0,68.0,-100.00,SSW,203,3.0,3.0,79,0.00,,,0.00,meteohub,2013-06-25 11:59:00,
2013-06-25 07:01:00,75.0,68.0,-100.00,SSW,203,3.0,4.0,79,0.00,,,0.00,meteohub,2013-06-25 12:01:00,
2013-06-25 07:03:00,74.8,67.8,-100.00,SSW,203,4.0,4.0,79,0.00,,,0.00,meteohub,2013-06-25 12:03:00,
2013-06-25 07:05:00,74.8,67.8,-100.00,NE,45,1.0,4.0,79,0.00,,,0.00,meteohub,2013-06-25 12:05:00,
2013-06-25 07:09:00,74.8,67.8,-100.00,North,0,1.0,4.0,79,0.00,,,0.00,meteohub,2013-06-25 12:09:00,
2013-06-25 07:11:00,74.8,67.8,-100.00,SSE,158,0.0,4.0,79,0.00,,,0.00,meteohub,2013-06-25 12:11:00,
2013-06-25 07:13:00,75.0,68.0,-100.00,South,180,2.0,4.0,79,0.00,,,0.00,meteohub,2013-06-25 12:13:00,
2013-06-25 07:15:00,75.0,68.0,-100.00,South,180,2.0,4.0,79,0.00,,,0.00,meteohub,2013-06-25 12:15:00,
2013-06-25 07:17:00,75.0,68.0,-100.00,South,180,2.0,4.0,79,0.00,,,0.00,meteohub,2013-06-25 12:17:00,
2013-06-25 07:19:00,74.8,67.8,-100.00,South,180,1.0,4.0,79,0.00,,,0.00,meteohub,2013-06-25 12:19:00,
2013-06-25 07:21:00,74.8,67.8,-100.00,ESE,113,0.0,2.0,79,0.00,,,0.00,meteohub,2013-06-25 12:21:00,
2013-06-25 07:23:00,74.8,67.8,-100.00,SSE,158,1.0,2.0,79,0.00,,,0.00,meteohub,2013-06-25 12:23:00,
2013-06-25 07:25:00,74.8,67.8,-100.00,SSE,158,1.0,2.0,79,0.00,,,0.00,meteohub,2013-06-25 12:25:00,
2013-06-25 07:27:00,74.8,68.2,-100.00,South,180,3.0,3.0,80,0.00,,,0.00,meteohub,2013-06-25 12:27:00,
2013-06-25 07:29:00,74.8,68.2,-100.00,SSW,203,2.0,2.0,80,0.00,,,0.00,meteohub,2013-06-25 12:29:00,
2013-06-25 07:32:00,74.8,68.2,-100.00,SSW,203,2.0,3.0,80,0.00,,,0.00,meteohub,2013-06-25 12:32:00,
2013-06-25 07:33:00,74.8,68.2,-100.00,SE,135,2.0,3.0,80,0.00,,,0.00,meteohub,2013-06-25 12:33:00,
2013-06-25 07:35:00,74.8,68.2,-100.00,SE,135,0.0,3.0,80,0.00,,,0.00,meteohub,2013-06-25 12:35:00,
2013-06-25 07:37:00,75.0,68.4,-100.00,SSW,203,2.0,3.0,80,0.00,,,0.00,meteohub,2013-06-25 12:37:00,
2013-06-25 07:39:00,75.0,68.4,-100.00,SSE,158,2.0,3.0,80,0.00,,,0.00,meteohub,2013-06-25 12:39:00,
2013-06-25 07:41:00,75.0,68.4,-100.00,ESE,113,0.0,3.0,80,0.00,,,0.00,meteohub,2013-06-25 12:41:00,
2013-06-25 07:43:00,75.0,68.4,-100.00,East,90,0.0,3.0,80,0.00,,,0.00,meteohub,2013-06-25 12:43:00,
2013-06-25 07:45:00,75.0,68.4,-100.00,East,90,0.0,2.0,80,0.00,,,0.00,meteohub,2013-06-25 12:45:00,
2013-06-25 07:47:00,75.0,68.4,-100.00,East,90,0.0,2.0,80,0.00,,,0.00,meteohub,2013-06-25 12:47:00,
2013-06-25 07:49:00,75.0,68.4,-100.00,NE,45,4.0,4.0,80,0.00,,,0.00,meteohub,2013-06-25 12:49:00,
2013-06-25 07:51:00,75.0,68.4,-100.00,NE,45,4.0,4.0,80,0.00,,,0.00,meteohub,2013-06-25 12:51:00,
2013-06-25 07:57:00,75.0,68.0,-100.00,South,180,0.0,4.0,79,0.00,,,0.00,meteohub,2013-06-25 12:57:00,
2013-06-25 07:59:00,75.0,68.0,-100.00,SSE,158,1.0,4.0,79,0.00,,,0.00,meteohub,2013-06-25 12:59:00,
2013-06-25 08:02:00,75.0,68.0,-100.00,SSE,158,1.0,4.0,79,0.00,,,0.00,meteohub,2013-06-25 13:02:00,
2013-06-25 08:03:00,75.0,68.0,-100.00,SSE,158,2.0,4.0,79,0.00,,,0.00,meteohub,2013-06-25 13:03:00,
2013-06-25 08:07:00,75.0,68.0,-100.00,ENE,68,0.0,4.0,79,0.00,,,0.00,meteohub,2013-06-25 13:07:00,
2013-06-25 08:09:00,75.4,68.4,-100.00,SW,225,2.0,4.0,79,0.00,,,0.00,meteohub,2013-06-25 13:09:00,
2013-06-25 08:13:00,75.4,68.4,-100.00,SSW,203,2.0,2.0,79,0.00,,,0.00,meteohub,2013-06-25 13:13:00,
2013-06-25 08:15:00,75.4,68.4,-100.00,SE,135,2.0,2.0,79,0.00,,,0.00,meteohub,2013-06-25 13:15:00,
2013-06-25 08:17:00,75.6,68.5,-100.00,SSW,203,4.0,4.0,79,0.00,,,0.00,meteohub,2013-06-25 13:17:00,
2013-06-25 08:21:00,75.7,68.4,-100.00,SSE,158,0.0,4.0,78,0.00,,,0.00,meteohub,2013-06-25 13:21:00,
2013-06-25 08:25:00,75.7,68.4,-100.00,South,180,1.0,4.0,78,0.00,,,0.00,meteohub,2013-06-25 13:25:00,
2013-06-25 08:27:00,75.7,68.4,-100.00,South,180,2.0,4.0,78,0.00,,,0.00,meteohub,2013-06-25 13:27:00,
2013-06-25 08:31:00,75.7,68.4,-100.00,SE,135,2.0,6.0,78,0.00,,,0.00,meteohub,2013-06-25 13:31:00,
2013-06-25 08:32:00,75.7,68.4,-100.00,SE,135,2.0,6.0,78,0.00,,,0.00,meteohub,2013-06-25 13:32:00,
2013-06-25 08:37:00,75.9,68.2,-100.00,SSE,158,0.0,6.0,77,0.00,,,0.00,meteohub,2013-06-25 13:37:00,
2013-06-25 08:43:00,76.3,68.5,-100.00,SE,135,0.0,6.0,77,0.00,,,0.00,meteohub,2013-06-25 13:43:00,
2013-06-25 08:45:00,76.5,68.7,-100.00,SSW,203,11.0,11.0,77,0.00,,,0.00,meteohub,2013-06-25 13:45:00,
2013-06-25 08:47:00,76.6,68.9,-100.00,ENE,68,3.0,4.0,77,0.00,,,0.00,meteohub,2013-06-25 13:47:00,
2013-06-25 08:51:00,76.8,68.7,-100.00,South,180,0.0,11.0,76,0.00,,,0.00,meteohub,2013-06-25 13:51:00,
2013-06-25 08:53:00,76.8,68.7,-100.00,South,180,0.0,11.0,76,0.00,,,0.00,meteohub,2013-06-25 13:53:00,
2013-06-25 08:55:00,76.8,68.7,-100.00,South,180,0.0,11.0,76,0.00,,,0.00,meteohub,2013-06-25 13:55:00,
2013-06-25 08:57:00,76.8,68.4,-100.00,SSE,158,2.0,11.0,75,0.00,,,0.00,meteohub,2013-06-25 13:57:00,
2013-06-25 09:01:00,77.2,68.7,-100.00,SE,135,1.0,11.0,75,0.00,,,0.00,meteohub,2013-06-25 14:01:00,
2013-06-25 09:04:00,77.2,68.7,-100.00,SSW,203,2.0,11.0,75,0.00,,,0.00,meteohub,2013-06-25 14:04:00,
2013-06-25 09:08:00,77.4,68.4,-100.00,SSE,158,3.0,3.0,74,0.00,,,0.00,meteohub,2013-06-25 14:08:00,
2013-06-25 09:10:00,77.4,68.4,-100.00,SSE,158,3.0,3.0,74,0.00,,,0.00,meteohub,2013-06-25 14:10:00,
2013-06-25 09:14:00,77.4,68.0,-100.00,SSW,203,2.0,3.0,73,0.00,,,0.00,meteohub,2013-06-25 14:14:00,
2013-06-25 09:16:00,77.4,68.0,-100.00,ESE,113,2.0,4.0,73,0.00,,,0.00,meteohub,2013-06-25 14:16:00,
2013-06-25 09:18:00,77.5,68.2,-100.00,South,180,1.0,4.0,73,0.00,,,0.00,meteohub,2013-06-25 14:18:00,
2013-06-25 09:20:00,77.5,68.2,-100.00,South,180,6.0,6.0,73,0.00,,,0.00,meteohub,2013-06-25 14:20:00,
2013-06-25 09:22:00,77.5,67.8,-100.00,SSW,203,2.0,4.0,72,0.00,,,0.00,meteohub,2013-06-25 14:22:00,
2013-06-25 09:26:00,77.5,67.5,-100.00,South,180,2.0,6.0,71,0.00,,,0.00,meteohub,2013-06-25 14:26:00,
2013-06-25 09:30:00,77.9,67.8,-100.00,SSE,158,5.0,6.0,71,0.00,,,0.00,meteohub,2013-06-25 14:30:00,
2013-06-25 09:32:00,77.9,67.8,-100.00,SSE,158,5.0,6.0,71,0.00,,,0.00,meteohub,2013-06-25 14:32:00,
2013-06-25 09:34:00,77.9,67.3,-100.00,WNW,293,0.0,6.0,70,0.00,,,0.00,meteohub,2013-06-25 14:34:00,
2013-06-25 09:36:00,78.1,67.5,-100.00,SE,135,3.0,6.0,70,0.00,,,0.00,meteohub,2013-06-25 14:36:00,
2013-06-25 09:40:00,78.1,67.5,-100.00,SW,225,18.0,18.0,70,0.00,,,0.00,meteohub,2013-06-25 14:40:00,
2013-06-25 09:42:00,78.1,67.1,-100.00,East,90,3.0,6.0,69,0.00,,,0.00,meteohub,2013-06-25 14:42:00,
2013-06-25 09:46:00,78.3,67.3,-100.00,SE,135,7.0,18.0,69,0.00,,,0.00,meteohub,2013-06-25 14:46:00,
2013-06-25 09:47:00,78.3,67.3,-100.00,SE,135,7.0,18.0,69,0.00,,,0.00,meteohub,2013-06-25 14:47:00,
2013-06-25 09:50:00,78.4,67.5,-100.00,South,180,11.0,18.0,69,0.00,,,0.00,meteohub,2013-06-25 14:50:00,
2013-06-25 09:56:00,78.6,67.1,-100.00,SSE,158,1.0,18.0,68,0.00,,,0.00,meteohub,2013-06-25 14:56:00,
2013-06-25 10:02:00,79.0,67.5,-100.00,SSW,203,3.0,12.0,68,0.00,,,0.00,meteohub,2013-06-25 15:02:00,
2013-06-25 10:04:00,79.0,67.5,-100.00,SSW,203,3.0,12.0,68,0.00,,,0.00,meteohub,2013-06-25 15:04:00,
2013-06-25 10:10:00,79.9,68.0,-100.00,SE,135,1.0,5.0,67,0.00,,,0.00,meteohub,2013-06-25 15:10:00,
2013-06-25 10:12:00,80.2,68.4,-100.00,ESE,113,9.0,9.0,67,0.00,,,0.00,meteohub,2013-06-25 15:12:00,
2013-06-25 10:14:00,80.4,68.0,-100.00,ESE,113,4.0,5.0,66,0.00,,,0.00,meteohub,2013-06-25 15:14:00,
2013-06-25 10:16:00,80.4,68.0,-100.00,SSW,203,6.0,9.0,66,0.00,,,0.00,meteohub,2013-06-25 15:16:00,
2013-06-25 10:18:00,80.4,68.0,-100.00,SSW,203,6.0,9.0,66,0.00,,,0.00,meteohub,2013-06-25 15:18:00,
2013-06-25 10:20:00,80.4,67.1,-100.00,SSE,158,4.0,9.0,64,0.00,,,0.00,meteohub,2013-06-25 15:20:00,
2013-06-25 10:24:00,80.4,67.1,-100.00,SW,225,6.0,9.0,64,0.00,,,0.00,meteohub,2013-06-25 15:24:00,
2013-06-25 10:28:00,80.6,67.3,-100.00,NE,45,4.0,9.0,64,0.00,,,0.00,meteohub,2013-06-25 15:28:00,
2013-06-25 10:30:00,81.0,67.6,-100.00,North,0,0.0,7.0,64,0.00,,,0.00,meteohub,2013-06-25 15:30:00,
2013-06-25 10:32:00,81.0,67.6,-100.00,North,0,0.0,7.0,64,0.00,,,0.00,meteohub,2013-06-25 15:32:00,
2013-06-25 10:38:00,81.9,68.0,-100.00,WSW,248,1.0,7.0,63,0.00,,,0.00,meteohub,2013-06-25 15:38:00,
2013-06-25 10:40:00,81.9,68.0,-100.00,WSW,248,1.0,7.0,63,0.00,,,0.00,meteohub,2013-06-25 15:40:00,
2013-06-25 10:46:00,82.6,68.2,-100.00,SE,135,0.0,4.0,62,0.00,,,0.00,meteohub,2013-06-25 15:46:00,
2013-06-25 10:47:00,82.6,68.2,-100.00,SE,135,0.0,4.0,62,0.00,,,0.00,meteohub,2013-06-25 15:47:00,
2013-06-25 10:48:00,82.6,68.2,-100.00,SE,135,0.0,4.0,62,0.00,,,0.00,meteohub,2013-06-25 15:48:00,
2013-06-25 10:54:00,82.6,68.2,-100.00,WSW,248,3.0,4.0,62,0.00,,,0.00,meteohub,2013-06-25 15:54:00,
2013-06-25 11:00:00,82.2,67.5,-100.00,SE,135,4.0,4.0,61,0.00,,,0.00,meteohub,2013-06-25 16:00:00,
2013-06-25 11:02:00,82.2,67.5,-100.00,SE,135,4.0,4.0,61,0.00,,,0.00,meteohub,2013-06-25 16:02:00,
2013-06-25 11:04:00,82.2,67.5,-100.00,SSW,203,2.0,3.0,61,0.00,,,0.00,meteohub,2013-06-25 16:04:00,
2013-06-25 11:08:00,82.2,67.5,-100.00,SSE,158,8.0,8.0,61,0.00,,,0.00,meteohub,2013-06-25 16:08:00,
2013-06-25 11:12:00,82.4,67.6,-100.00,East,90,5.0,5.0,61,0.00,,,0.00,meteohub,2013-06-25 16:12:00,
2013-06-25 11:14:00,82.6,67.8,-100.00,SE,135,1.0,4.0,61,0.00,,,0.00,meteohub,2013-06-25 16:14:00,
2013-06-25 11:16:00,82.8,68.4,-100.00,South,180,3.0,8.0,62,0.00,,,0.00,meteohub,2013-06-25 16:16:00,
2013-06-25 11:20:00,83.1,68.4,-100.00,SSW,203,5.0,8.0,61,0.00,,,0.00,meteohub,2013-06-25 16:20:00,
2013-06-25 11:22:00,83.3,68.0,-100.00,South,180,2.0,8.0,60,0.00,,,0.00,meteohub,2013-06-25 16:22:00,
2013-06-25 11:28:00,83.8,68.0,-100.00,SW,225,2.0,8.0,59,0.00,,,0.00,meteohub,2013-06-25 16:28:00,
2013-06-25 11:30:00,83.8,68.0,-100.00,SSW,203,2.0,5.0,59,0.00,,,0.00,meteohub,2013-06-25 16:30:00,
2013-06-25 11:32:00,83.8,68.0,-100.00,SSW,203,2.0,5.0,59,0.00,,,0.00,meteohub,2013-06-25 16:32:00,
2013-06-25 11:37:00,84.6,68.2,-100.00,WSW,248,5.0,5.0,58,0.00,,,0.00,meteohub,2013-06-25 16:37:00,
2013-06-25 11:39:00,84.7,67.8,-100.00,South,180,4.0,5.0,57,0.00,,,0.00,meteohub,2013-06-25 16:39:00,
2013-06-25 11:43:00,84.9,68.0,-100.00,SE,135,2.0,7.0,57,0.00,,,0.00,meteohub,2013-06-25 16:43:00,
2013-06-25 11:47:00,84.9,67.5,-100.00,SSW,203,10.0,10.0,56,0.00,,,0.00,meteohub,2013-06-25 16:47:00,
2013-06-25 11:53:00,85.3,67.8,-100.00,SW,225,4.0,10.0,56,0.00,,,0.00,meteohub,2013-06-25 16:53:00,
2013-06-25 11:55:00,85.3,67.8,-100.00,South,180,5.0,10.0,56,0.00,,,0.00,meteohub,2013-06-25 16:55:00,
2013-06-25 11:57:00,85.3,67.8,-100.00,SW,225,14.0,14.0,56,0.00,,,0.00,meteohub,2013-06-25 16:57:00,
2013-06-25 12:01:00,85.6,67.6,-100.00,SE,135,2.0,14.0,55,0.00,,,0.00,meteohub,2013-06-25 17:01:00,
2013-06-25 12:03:00,85.8,67.8,-100.00,ESE,113,2.0,14.0,55,0.00,,,0.00,meteohub,2013-06-25 17:03:00,
2013-06-25 12:05:00,85.8,67.8,-100.00,South,180,2.0,14.0,55,0.00,,,0.00,meteohub,2013-06-25 17:05:00,
2013-06-25 12:07:00,86.2,67.6,-100.00,South,180,2.0,14.0,54,0.00,,,0.00,meteohub,2013-06-25 17:07:00,
2013-06-25 12:09:00,86.4,68.4,-100.00,ESE,113,2.0,14.0,55,0.00,,,0.00,meteohub,2013-06-25 17:09:00,
2013-06-25 12:11:00,86.4,68.4,-100.00,ESE,113,2.0,14.0,55,0.00,,,0.00,meteohub,2013-06-25 17:11:00,
2013-06-25 12:13:00,86.7,68.0,-100.00,NNW,338,1.0,14.0,54,0.00,,,0.00,meteohub,2013-06-25 17:13:00,
2013-06-25 12:17:00,87.1,68.4,-100.00,South,180,7.0,7.0,54,0.00,,,0.00,meteohub,2013-06-25 17:17:00,
2013-06-25 12:19:00,87.1,68.4,-100.00,South,180,7.0,7.0,54,0.00,,,0.00,meteohub,2013-06-25 17:19:00,
2013-06-25 12:23:00,87.4,68.2,-100.00,West,270,4.0,7.0,53,0.00,,,0.00,meteohub,2013-06-25 17:23:00,
2013-06-25 12:25:00,87.6,67.8,-100.00,SW,225,5.0,7.0,52,0.00,,,0.00,meteohub,2013-06-25 17:25:00,
2013-06-25 12:31:00,88.0,67.6,-100.00,South,180,6.0,7.0,51,0.00,,,0.00,meteohub,2013-06-25 17:31:00,
2013-06-25 12:32:00,88.0,67.6,-100.00,South,180,6.0,7.0,51,0.00,,,0.00,meteohub,2013-06-25 17:32:00,
2013-06-25 12:33:00,87.8,67.5,-100.00,South,180,1.0,7.0,51,0.00,,,0.00,meteohub,2013-06-25 17:33:00,
2013-06-25 12:37:00,88.0,68.2,-100.00,SE,135,1.0,6.0,52,0.00,,,0.00,meteohub,2013-06-25 17:37:00,
2013-06-25 12:41:00,88.2,68.4,-100.00,WNW,293,2.0,6.0,52,0.00,,,0.00,meteohub,2013-06-25 17:41:00,
2013-06-25 12:43:00,88.5,68.0,-100.00,SSE,158,6.0,6.0,51,0.00,,,0.00,meteohub,2013-06-25 17:43:00,
2013-06-25 12:45:00,88.7,68.2,-100.00,West,270,2.0,6.0,51,0.00,,,0.00,meteohub,2013-06-25 17:45:00,
2013-06-25 12:47:00,88.7,68.2,-100.00,West,270,2.0,6.0,51,0.00,,,0.00,meteohub,2013-06-25 17:47:00,
2013-06-25 12:51:00,88.9,68.4,-100.00,ESE,113,3.0,6.0,51,0.00,,,0.00,meteohub,2013-06-25 17:51:00,
2013-06-25 12:55:00,89.2,68.2,-100.00,SE,135,0.0,6.0,50,0.00,,,0.00,meteohub,2013-06-25 17:55:00,
2013-06-25 12:57:00,89.4,68.4,-100.00,NE,45,7.0,7.0,50,0.00,,,0.00,meteohub,2013-06-25 17:57:00,
2013-06-25 12:59:00,89.2,68.2,-100.00,NE,45,7.0,7.0,50,0.00,,,0.00,meteohub,2013-06-25 17:59:00,
2013-06-25 13:01:00,89.4,68.4,-100.00,ENE,68,0.0,7.0,50,0.00,,,0.00,meteohub,2013-06-25 18:01:00,
2013-06-25 13:05:00,89.6,67.8,-100.00,SSW,203,5.0,7.0,49,0.00,,,0.00,meteohub,2013-06-25 18:05:00,
2013-06-25 13:07:00,89.8,68.0,-100.00,SSW,203,4.0,7.0,49,0.00,,,0.00,meteohub,2013-06-25 18:07:00,
2013-06-25 13:09:00,89.8,67.5,-100.00,ESE,113,3.0,7.0,48,0.00,,,0.00,meteohub,2013-06-25 18:09:00,
2013-06-25 13:11:00,90.0,67.6,-100.00,West,270,2.0,7.0,48,0.00,,,0.00,meteohub,2013-06-25 18:11:00,
2013-06-25 13:13:00,90.1,68.4,-100.00,South,180,6.0,7.0,49,0.00,,,0.00,meteohub,2013-06-25 18:13:00,
2013-06-25 13:15:00,90.3,68.0,-100.00,SSE,158,4.0,7.0,48,0.00,,,0.00,meteohub,2013-06-25 18:15:00,
2013-06-25 13:17:00,90.3,68.0,-100.00,ESE,113,1.0,7.0,48,0.00,,,0.00,meteohub,2013-06-25 18:17:00,
2013-06-25 13:19:00,90.7,68.4,-100.00,East,90,3.0,7.0,48,0.00,,,0.00,meteohub,2013-06-25 18:19:00,
2013-06-25 13:21:00,91.0,68.0,-100.00,South,180,3.0,6.0,47,0.00,,,0.00,meteohub,2013-06-25 18:21:00,
2013-06-25 13:23:00,91.0,67.5,-100.00,SSW,203,7.0,7.0,46,0.00,,,0.00,meteohub,2013-06-25 18:23:00,
2013-06-25 13:25:00,91.0,67.5,-100.00,SSW,203,7.0,7.0,46,0.00,,,0.00,meteohub,2013-06-25 18:25:00,
2013-06-25 13:27:00,91.2,66.9,-100.00,SSW,203,7.0,7.0,45,0.00,,,0.00,meteohub,2013-06-25 18:27:00,
2013-06-25 13:29:00,91.2,66.9,-100.00,SSW,203,7.0,7.0,45,0.00,,,0.00,meteohub,2013-06-25 18:29:00,
2013-06-25 13:31:00,91.2,66.9,-100.00,SE,135,1.0,7.0,45,0.00,,,0.00,meteohub,2013-06-25 18:31:00,
2013-06-25 13:32:00,91.2,66.9,-100.00,SE,135,1.0,7.0,45,0.00,,,0.00,meteohub,2013-06-25 18:32:00,
2013-06-25 13:35:00,91.4,67.1,-100.00,South,180,3.0,7.0,45,0.00,,,0.00,meteohub,2013-06-25 18:35:00,
2013-06-25 13:37:00,91.6,67.3,-100.00,SSE,158,0.0,7.0,45,0.00,,,0.00,meteohub,2013-06-25 18:37:00,
2013-06-25 13:41:00,91.9,67.6,-100.00,SW,225,0.0,7.0,45,0.00,,,0.00,meteohub,2013-06-25 18:41:00,
2013-06-25 13:43:00,91.9,67.6,-100.00,SE,135,1.0,7.0,45,0.00,,,0.00,meteohub,2013-06-25 18:43:00,
2013-06-25 13:47:00,92.1,67.6,-100.00,ESE,113,0.0,3.0,45,0.00,,,0.00,meteohub,2013-06-25 18:47:00,
2013-06-25 13:49:00,92.1,67.6,-100.00,ESE,113,3.0,3.0,45,0.00,,,0.00,meteohub,2013-06-25 18:49:00,
2013-06-25 13:55:00,92.8,67.1,-100.00,SE,135,3.0,9.0,43,0.00,,,0.00,meteohub,2013-06-25 18:55:00,
2013-06-25 13:57:00,92.8,67.1,-100.00,East,90,2.0,9.0,43,0.00,,,0.00,meteohub,2013-06-25 18:57:00,
2013-06-25 13:59:00,93.0,67.3,-100.00,NW,315,2.0,9.0,43,0.00,,,0.00,meteohub,2013-06-25 18:59:00,
2013-06-25 14:01:00,93.0,67.3,-100.00,NW,315,2.0,9.0,43,0.00,,,0.00,meteohub,2013-06-25 19:01:00,
2013-06-25 14:05:00,92.8,66.4,-100.00,SE,135,12.0,12.0,42,0.00,,,0.00,meteohub,2013-06-25 19:05:00,
2013-06-25 14:08:00,93.0,66.6,-100.00,SW,225,0.0,12.0,42,0.00,,,0.00,meteohub,2013-06-25 19:08:00,
2013-06-25 14:10:00,93.0,66.6,-100.00,ENE,68,2.0,12.0,42,0.00,,,0.00,meteohub,2013-06-25 19:10:00,
2013-06-25 14:12:00,93.0,66.6,-100.00,ENE,68,2.0,12.0,42,0.00,,,0.00,meteohub,2013-06-25 19:12:00,
2013-06-25 14:14:00,93.4,66.9,-100.00,SSE,158,4.0,12.0,42,0.00,,,0.00,meteohub,2013-06-25 19:14:00,
2013-06-25 14:16:00,93.4,66.2,-100.00,ENE,68,4.0,12.0,41,0.00,,,0.00,meteohub,2013-06-25 19:16:00,
2013-06-25 14:18:00,93.4,66.2,-100.00,SW,225,10.0,12.0,41,0.00,,,0.00,meteohub,2013-06-25 19:18:00,
2013-06-25 14:22:00,93.4,67.5,-100.00,SSW,203,0.0,12.0,43,0.00,,,0.00,meteohub,2013-06-25 19:22:00,
2013-06-25 14:24:00,93.4,67.5,-100.00,SW,225,1.0,12.0,43,0.00,,,0.00,meteohub,2013-06-25 19:24:00,
2013-06-25 14:26:00,93.7,67.1,-100.00,South,180,1.0,10.0,42,0.00,,,0.00,meteohub,2013-06-25 19:26:00,
2013-06-25 14:28:00,93.7,67.1,-100.00,South,180,1.0,10.0,42,0.00,,,0.00,meteohub,2013-06-25 19:28:00,
2013-06-25 14:30:00,93.9,66.6,-100.00,SE,135,1.0,10.0,41,0.00,,,0.00,meteohub,2013-06-25 19:30:00,
2013-06-25 14:32:00,94.3,66.9,-100.00,ESE,113,1.0,10.0,41,0.00,,,0.00,meteohub,2013-06-25 19:32:00,
2013-06-25 14:34:00,94.3,66.9,-100.00,SSW,203,3.0,10.0,41,0.00,,,0.00,meteohub,2013-06-25 19:34:00,
2013-06-25 14:36:00,94.3,66.9,-100.00,SSW,203,3.0,3.0,41,0.00,,,0.00,meteohub,2013-06-25 19:36:00,
2013-06-25 14:42:00,94.6,68.0,-100.00,WSW,248,3.0,5.0,42,0.00,,,0.00,meteohub,2013-06-25 19:42:00,
2013-06-25 14:44:00,94.6,68.0,-100.00,WSW,248,3.0,5.0,42,0.00,,,0.00,meteohub,2013-06-25 19:44:00,
2013-06-25 14:48:00,95.2,68.5,-100.00,SW,225,2.0,5.0,42,0.00,,,0.00,meteohub,2013-06-25 19:48:00,
2013-06-25 14:50:00,95.2,67.8,-100.00,ESE,113,0.0,5.0,41,0.00,,,0.00,meteohub,2013-06-25 19:50:00,
2013-06-25 14:52:00,95.4,68.0,-100.00,SSW,203,4.0,5.0,41,0.00,,,0.00,meteohub,2013-06-25 19:52:00,
2013-06-25 14:54:00,95.4,68.0,-100.00,ENE,68,4.0,5.0,41,0.00,,,0.00,meteohub,2013-06-25 19:54:00,
2013-06-25 14:56:00,95.2,67.8,-100.00,ENE,68,4.0,5.0,41,0.00,,,0.00,meteohub,2013-06-25 19:56:00,
2013-06-25 14:58:00,95.2,67.8,-100.00,ENE,68,4.0,5.0,41,0.00,,,0.00,meteohub,2013-06-25 19:58:00,
2013-06-25 15:00:00,95.2,67.8,-100.00,SE,135,1.0,5.0,41,0.00,,,0.00,meteohub,2013-06-25 20:00:00,
2013-06-25 15:02:00,95.2,67.8,-100.00,SE,135,0.0,4.0,41,0.00,,,0.00,meteohub,2013-06-25 20:02:00,
2013-06-25 15:06:00,95.4,68.0,-100.00,SE,135,4.0,4.0,41,0.00,,,0.00,meteohub,2013-06-25 20:06:00,
2013-06-25 15:08:00,95.4,68.0,-100.00,SE,135,4.0,4.0,41,0.00,,,0.00,meteohub,2013-06-25 20:08:00,
2013-06-25 15:10:00,95.2,67.8,-100.00,SE,135,2.0,4.0,41,0.00,,,0.00,meteohub,2013-06-25 20:10:00,
2013-06-25 15:12:00,95.5,68.0,-100.00,SSW,203,8.0,8.0,41,0.00,,,0.00,meteohub,2013-06-25 20:12:00,
2013-06-25 15:14:00,95.5,68.0,-100.00,SSW,203,8.0,8.0,41,0.00,,,0.00,meteohub,2013-06-25 20:14:00,
2013-06-25 15:16:00,95.5,67.3,-100.00,South,180,6.0,8.0,40,0.00,,,0.00,meteohub,2013-06-25 20:16:00,
2013-06-25 15:17:00,95.5,67.3,-100.00,SW,225,3.0,8.0,40,0.00,,,0.00,meteohub,2013-06-25 20:17:00,
2013-06-25 15:22:00,95.4,67.3,-100.00,ESE,113,0.0,8.0,40,0.00,,,0.00,meteohub,2013-06-25 20:22:00,
2013-06-25 15:26:00,95.4,68.0,-100.00,SSE,158,2.0,8.0,41,0.00,,,0.00,meteohub,2013-06-25 20:26:00,
2013-06-25 15:30:00,95.5,67.3,-100.00,SE,135,1.0,6.0,40,0.00,,,0.00,meteohub,2013-06-25 20:30:00,
2013-06-25 15:32:00,95.7,67.5,-100.00,SSW,203,4.0,6.0,40,0.00,,,0.00,meteohub,2013-06-25 20:32:00,
2013-06-25 15:36:00,95.7,66.7,-100.00,South,180,3.0,4.0,39,0.00,,,0.00,meteohub,2013-06-25 20:36:00,
2013-06-25 15:38:00,95.7,66.7,-100.00,South,180,3.0,4.0,39,0.00,,,0.00,meteohub,2013-06-25 20:38:00,
2013-06-25 15:40:00,95.7,66.7,-100.00,ESE,113,8.0,11.0,39,0.00,,,0.00,meteohub,2013-06-25 20:40:00,
2013-06-25 15:42:00,95.7,66.7,-100.00,ENE,68,0.0,11.0,39,0.00,,,0.00,meteohub,2013-06-25 20:42:00,
2013-06-25 15:47:00,95.7,66.7,-100.00,ENE,68,5.0,11.0,39,0.00,,,0.00,meteohub,2013-06-25 20:47:00,
2013-06-25 15:48:00,95.9,66.9,-100.00,SSW,203,5.0,11.0,39,0.00,,,0.00,meteohub,2013-06-25 20:48:00,
2013-06-25 15:52:00,95.7,66.7,-100.00,South,180,2.0,11.0,39,0.00,,,0.00,meteohub,2013-06-25 20:52:00,
2013-06-25 15:54:00,95.5,66.6,-100.00,ENE,68,7.0,11.0,39,0.00,,,0.00,meteohub,2013-06-25 20:54:00,
2013-06-25 15:56:00,95.5,66.6,-100.00,East,90,1.0,8.0,39,0.00,,,0.00,meteohub,2013-06-25 20:56:00,
2013-06-25 15:58:00,95.5,66.6,-100.00,East,90,1.0,8.0,39,0.00,,,0.00,meteohub,2013-06-25 20:58:00,
2013-06-25 16:00:00,95.4,66.6,-100.00,ENE,68,0.0,7.0,39,0.00,,,0.00,meteohub,2013-06-25 21:00:00,
2013-06-25 16:02:00,95.4,66.6,-100.00,ESE,113,5.0,7.0,39,0.00,,,0.00,meteohub,2013-06-25 21:02:00,
2013-06-25 16:06:00,95.4,66.6,-100.00,SW,225,3.0,7.0,39,0.00,,,0.00,meteohub,2013-06-25 21:06:00,
2013-06-25 16:08:00,95.2,66.4,-100.00,SSE,158,1.0,7.0,39,0.00,,,0.00,meteohub,2013-06-25 21:08:00,
2013-06-25 16:10:00,95.4,66.6,-100.00,SE,135,4.0,7.0,39,0.00,,,0.00,meteohub,2013-06-25 21:10:00,
2013-06-25 16:12:00,95.4,66.6,-100.00,SE,135,4.0,7.0,39,0.00,,,0.00,meteohub,2013-06-25 21:12:00,
2013-06-25 16:16:00,95.4,66.6,-100.00,SW,225,4.0,5.0,39,0.00,,,0.00,meteohub,2013-06-25 21:16:00,
2013-06-25 16:17:00,95.4,66.6,-100.00,SW,225,4.0,5.0,39,0.00,,,0.00,meteohub,2013-06-25 21:17:00,
2013-06-25 16:20:00,95.4,66.6,-100.00,SSW,203,11.0,11.0,39,0.00,,,0.00,meteohub,2013-06-25 21:20:00,
2013-06-25 16:22:00,95.4,66.6,-100.00,SSW,203,3.0,5.0,39,0.00,,,0.00,meteohub,2013-06-25 21:22:00,
2013-06-25 16:26:00,95.0,66.2,-100.00,SE,135,1.0,11.0,39,0.00,,,0.00,meteohub,2013-06-25 21:26:00,
2013-06-25 16:28:00,95.2,66.4,-100.00,South,180,2.0,11.0,39,0.00,,,0.00,meteohub,2013-06-25 21:28:00,
2013-06-25 16:30:00,95.2,66.4,-100.00,SSW,203,3.0,11.0,39,0.00,,,0.00,meteohub,2013-06-25 21:30:00,
2013-06-25 16:32:00,95.2,66.4,-100.00,SW,225,10.0,11.0,39,0.00,,,0.00,meteohub,2013-06-25 21:32:00,
2013-06-25 16:38:00,95.2,67.1,-100.00,SSW,203,3.0,11.0,40,0.00,,,0.00,meteohub,2013-06-25 21:38:00,
2013-06-25 16:40:00,95.2,66.4,-100.00,East,90,2.0,10.0,39,0.00,,,0.00,meteohub,2013-06-25 21:40:00,
2013-06-25 16:42:00,95.2,67.1,-100.00,South,180,0.0,10.0,40,0.00,,,0.00,meteohub,2013-06-25 21:42:00,
2013-06-25 16:44:00,95.2,67.1,-100.00,SW,225,2.0,10.0,40,0.00,,,0.00,meteohub,2013-06-25 21:44:00,
2013-06-25 16:47:00,95.2,67.1,-100.00,SW,225,2.0,10.0,40,0.00,,,0.00,meteohub,2013-06-25 21:47:00,
2013-06-25 16:51:00,95.2,66.4,-100.00,ESE,113,2.0,4.0,39,0.00,,,0.00,meteohub,2013-06-25 21:51:00,
2013-06-25 16:53:00,95.2,67.1,-100.00,ESE,113,1.0,4.0,40,0.00,,,0.00,meteohub,2013-06-25 21:53:00,
2013-06-25 16:55:00,95.0,66.2,-100.00,NNE,23,4.0,4.0,39,0.00,,,0.00,meteohub,2013-06-25 21:55:00,
2013-06-25 16:57:00,94.8,66.7,-100.00,ESE,113,4.0,4.0,40,0.00,,,0.00,meteohub,2013-06-25 21:57:00,
2013-06-25 16:59:00,94.8,66.7,-100.00,ESE,113,3.0,4.0,40,0.00,,,0.00,meteohub,2013-06-25 21:59:00,
2013-06-25 17:01:00,94.8,66.7,-100.00,ESE,113,2.0,4.0,40,0.00,,,0.00,meteohub,2013-06-25 22:01:00,
2013-06-25 17:02:00,94.8,66.7,-100.00,ESE,113,2.0,4.0,40,0.00,,,0.00,meteohub,2013-06-25 22:02:00,
2013-06-25 17:05:00,94.8,66.7,-100.00,South,180,3.0,4.0,40,0.00,,,0.00,meteohub,2013-06-25 22:05:00,
2013-06-25 17:07:00,94.6,66.6,-100.00,East,90,1.0,5.0,40,0.00,,,0.00,meteohub,2013-06-25 22:07:00,
2013-06-25 17:09:00,94.6,65.8,-100.00,NW,315,0.0,5.0,39,0.00,,,0.00,meteohub,2013-06-25 22:09:00,
2013-06-25 17:13:00,94.5,66.4,-100.00,SE,135,1.0,5.0,40,0.00,,,0.00,meteohub,2013-06-25 22:13:00,
2013-06-25 17:15:00,94.6,66.6,-100.00,ENE,68,2.0,5.0,40,0.00,,,0.00,meteohub,2013-06-25 22:15:00,
2013-06-25 17:17:00,94.6,66.6,-100.00,ENE,68,2.0,5.0,40,0.00,,,0.00,meteohub,2013-06-25 22:17:00,
2013-06-25 17:23:00,94.3,66.2,-100.00,SSW,203,4.0,4.0,40,0.00,,,0.00,meteohub,2013-06-25 22:23:00,
2013-06-25 17:25:00,94.1,66.0,-100.00,SSW,203,4.0,4.0,40,0.00,,,0.00,meteohub,2013-06-25 22:25:00,
2013-06-25 17:27:00,93.9,65.8,-100.00,ENE,68,4.0,4.0,40,0.00,,,0.00,meteohub,2013-06-25 22:27:00,
2013-06-25 17:29:00,93.7,65.8,-100.00,West,270,5.0,5.0,40,0.00,,,0.00,meteohub,2013-06-25 22:29:00,
2013-06-25 17:31:00,93.7,66.6,-100.00,NE,45,0.0,4.0,41,0.00,,,0.00,meteohub,2013-06-25 22:31:00,
2013-06-25 17:32:00,93.7,66.6,-100.00,SSE,158,6.0,6.0,41,0.00,,,0.00,meteohub,2013-06-25 22:32:00,
2013-06-25 17:33:00,93.7,66.6,-100.00,SSE,158,6.0,6.0,41,0.00,,,0.00,meteohub,2013-06-25 22:33:00,
2013-06-25 17:37:00,93.6,66.4,-100.00,SW,225,2.0,6.0,41,0.00,,,0.00,meteohub,2013-06-25 22:37:00,
2013-06-25 17:41:00,93.4,66.2,-100.00,ESE,113,1.0,6.0,41,0.00,,,0.00,meteohub,2013-06-25 22:41:00,
2013-06-25 17:43:00,93.4,66.2,-100.00,NNE,23,3.0,6.0,41,0.00,,,0.00,meteohub,2013-06-25 22:43:00,
2013-06-25 17:45:00,93.4,66.2,-100.00,South,180,5.0,6.0,41,0.00,,,0.00,meteohub,2013-06-25 22:45:00,
2013-06-25 17:47:00,93.4,66.2,-100.00,ESE,113,2.0,6.0,41,0.00,,,0.00,meteohub,2013-06-25 22:47:00,
2013-06-25 17:49:00,93.4,66.2,-100.00,SSW,203,13.0,13.0,41,0.00,,,0.00,meteohub,2013-06-25 22:49:00,
2013-06-25 17:51:00,93.2,66.0,-100.00,SSW,203,2.0,13.0,41,0.00,,,0.00,meteohub,2013-06-25 22:51:00,
2013-06-25 17:55:00,93.0,66.6,-100.00,ESE,113,2.0,13.0,42,0.00,,,0.00,meteohub,2013-06-25 22:55:00,
2013-06-25 17:57:00,93.0,66.6,-100.00,ESE,113,2.0,13.0,42,0.00,,,0.00,meteohub,2013-06-25 22:57:00,
2013-06-25 17:59:00,93.0,66.6,-100.00,NE,45,0.0,13.0,42,0.00,,,0.00,meteohub,2013-06-25 22:59:00,
2013-06-25 18:01:00,93.0,66.6,-100.00,SE,135,1.0,13.0,42,0.00,,,0.00,meteohub,2013-06-25 23:01:00,
2013-06-25 18:05:00,92.8,65.7,-100.00,SSE,158,2.0,13.0,41,0.00,,,0.00,meteohub,2013-06-25 23:05:00,
2013-06-25 18:07:00,92.8,65.7,-100.00,SSE,158,2.0,13.0,41,0.00,,,0.00,meteohub,2013-06-25 23:07:00,
2013-06-25 18:09:00,92.8,66.4,-100.00,South,180,4.0,13.0,42,0.00,,,0.00,meteohub,2013-06-25 23:09:00,
2013-06-25 18:13:00,92.8,66.4,-100.00,SE,135,0.0,4.0,42,0.00,,,0.00,meteohub,2013-06-25 23:13:00,
2013-06-25 18:17:00,92.8,66.4,-100.00,SE,135,6.0,6.0,42,0.00,,,0.00,meteohub,2013-06-25 23:17:00,
2013-06-25 18:19:00,92.7,66.2,-100.00,NNE,23,4.0,4.0,42,0.00,,,0.00,meteohub,2013-06-25 23:19:00,
2013-06-25 18:23:00,92.5,66.0,-100.00,SE,135,1.0,6.0,42,0.00,,,0.00,meteohub,2013-06-25 23:23:00,
2013-06-25 18:25:00,92.5,66.0,-100.00,East,90,2.0,6.0,42,0.00,,,0.00,meteohub,2013-06-25 23:25:00,
2013-06-25 18:27:00,92.3,65.8,-100.00,SW,225,0.0,6.0,42,0.00,,,0.00,meteohub,2013-06-25 23:27:00,
2013-06-25 18:32:00,92.3,65.8,-100.00,SSW,203,5.0,6.0,42,0.00,,,0.00,meteohub,2013-06-25 23:32:00,
2013-06-25 18:33:00,92.3,65.8,-100.00,SSW,203,5.0,6.0,42,0.00,,,0.00,meteohub,2013-06-25 23:33:00,
2013-06-25 18:35:00,92.3,65.8,-100.00,SSW,203,6.0,6.0,42,0.00,,,0.00,meteohub,2013-06-25 23:35:00,
2013-06-25 18:37:00,92.1,65.7,-100.00,South,180,4.0,5.0,42,0.00,,,0.00,meteohub,2013-06-25 23:37:00,
2013-06-25 18:41:00,91.9,65.5,-100.00,SW,225,1.0,6.0,42,0.00,,,0.00,meteohub,2013-06-25 23:41:00,
2013-06-25 18:43:00,91.8,65.5,-100.00,East,90,3.0,6.0,42,0.00,,,0.00,meteohub,2013-06-25 23:43:00,
2013-06-25 18:45:00,91.8,65.5,-100.00,South,180,3.0,6.0,42,0.00,,,0.00,meteohub,2013-06-25 23:45:00,
2013-06-25 18:47:00,91.8,65.5,-100.00,South,180,7.0,7.0,42,0.00,,,0.00,meteohub,2013-06-25 23:47:00,
2013-06-25 18:51:00,91.6,65.3,-100.00,WNW,293,6.0,7.0,42,0.00,,,0.00,meteohub,2013-06-25 23:51:00,
2013-06-25 18:53:00,91.6,65.3,-100.00,South,180,0.0,7.0,42,0.00,,,0.00,meteohub,2013-06-25 23:53:00,
2013-06-25 18:55:00,91.4,65.1,-100.00,ESE,113,5.0,7.0,42,0.00,,,0.00,meteohub,2013-06-25 23:55:00,
2013-06-25 18:59:00,91.2,64.9,-100.00,East,90,5.0,7.0,42,0.00,,,0.00,meteohub,2013-06-25 23:59:00,
2013-06-25 19:01:00,91.2,64.9,-100.00,South,180,2.0,7.0,42,0.00,,,0.00,meteohub,2013-06-26 00:01:00,
2013-06-25 19:02:00,91.2,64.9,-100.00,South,180,2.0,7.0,42,0.00,,,0.00,meteohub,2013-06-26 00:02:00,
2013-06-25 19:03:00,91.2,64.9,-100.00,South,180,2.0,7.0,42,0.00,,,0.00,meteohub,2013-06-26 00:03:00,
2013-06-25 19:08:00,91.2,64.9,-100.00,SSW,203,4.0,7.0,42,0.00,,,0.00,meteohub,2013-06-26 00:08:00,
2013-06-25 19:10:00,91.2,64.9,-100.00,SSW,203,1.0,7.0,42,0.00,,,0.00,meteohub,2013-06-26 00:10:00,
2013-06-25 19:14:00,91.0,64.8,-100.00,South,180,6.0,6.0,42,0.00,,,0.00,meteohub,2013-06-26 00:14:00,
2013-06-25 19:16:00,91.0,64.8,-100.00,East,90,5.0,5.0,42,0.00,,,0.00,meteohub,2013-06-26 00:16:00,
2013-06-25 19:17:00,91.0,64.8,-100.00,SW,225,2.0,5.0,42,0.00,,,0.00,meteohub,2013-06-26 00:17:00,
2013-06-25 19:20:00,90.9,64.6,-100.00,South,180,2.0,5.0,42,0.00,,,0.00,meteohub,2013-06-26 00:20:00,
2013-06-25 19:22:00,90.7,64.4,-100.00,ENE,68,2.0,6.0,42,0.00,,,0.00,meteohub,2013-06-26 00:22:00,
2013-06-25 19:24:00,90.7,64.4,-100.00,SSE,158,3.0,6.0,42,0.00,,,0.00,meteohub,2013-06-26 00:24:00,
2013-06-25 19:28:00,90.3,64.0,-100.00,South,180,3.0,6.0,42,0.00,,,0.00,meteohub,2013-06-26 00:28:00,
2013-06-25 19:30:00,90.3,64.0,-100.00,ESE,113,2.0,6.0,42,0.00,,,0.00,meteohub,2013-06-26 00:30:00,
2013-06-25 19:32:00,90.1,63.9,-100.00,ESE,113,3.0,5.0,42,0.00,,,0.00,meteohub,2013-06-26 00:32:00,
2013-06-25 19:36:00,90.1,63.9,-100.00,NE,45,7.0,7.0,42,0.00,,,0.00,meteohub,2013-06-26 00:36:00,
2013-06-25 19:38:00,90.1,63.9,-100.00,South,180,4.0,7.0,42,0.00,,,0.00,meteohub,2013-06-26 00:38:00,
2013-06-25 19:40:00,90.1,63.9,-100.00,South,180,4.0,7.0,42,0.00,,,0.00,meteohub,2013-06-26 00:40:00,
2013-06-25 19:42:00,90.0,64.4,-100.00,ESE,113,1.0,7.0,43,0.00,,,0.00,meteohub,2013-06-26 00:42:00,
2013-06-25 19:44:00,89.8,64.2,-100.00,SSW,203,10.0,10.0,43,0.00,,,0.00,meteohub,2013-06-26 00:44:00,
2013-06-25 19:46:00,89.8,64.2,-100.00,SE,135,2.0,10.0,43,0.00,,,0.00,meteohub,2013-06-26 00:46:00,
2013-06-25 19:48:00,89.8,64.2,-100.00,East,90,6.0,10.0,43,0.00,,,0.00,meteohub,2013-06-26 00:48:00,
2013-06-25 19:50:00,89.8,64.2,-100.00,South,180,5.0,10.0,43,0.00,,,0.00,meteohub,2013-06-26 00:50:00,
2013-06-25 19:54:00,89.4,63.3,-100.00,South,180,4.0,10.0,42,0.00,,,0.00,meteohub,2013-06-26 00:54:00,
2013-06-25 19:56:00,89.4,63.3,-100.00,SSW,203,0.0,10.0,42,0.00,,,0.00,meteohub,2013-06-26 00:56:00,
2013-06-25 19:58:00,89.4,63.3,-100.00,SE,135,0.0,10.0,42,0.00,,,0.00,meteohub,2013-06-26 00:58:00,
2013-06-25 20:00:00,89.4,63.3,-100.00,ESE,113,2.0,6.0,42,0.00,,,0.00,meteohub,2013-06-26 01:00:00,
2013-06-25 20:04:00,89.2,63.9,-100.00,ESE,113,3.0,6.0,43,0.00,,,0.00,meteohub,2013-06-26 01:04:00,
2013-06-25 20:06:00,89.2,63.9,-100.00,SE,135,0.0,5.0,43,0.00,,,0.00,meteohub,2013-06-26 01:06:00,
2013-06-25 20:08:00,89.2,63.9,-100.00,East,90,3.0,5.0,43,0.00,,,0.00,meteohub,2013-06-26 01:08:00,
2013-06-25 20:10:00,89.2,63.9,-100.00,ENE,68,1.0,3.0,43,0.00,,,0.00,meteohub,2013-06-26 01:10:00,
2013-06-25 20:12:00,89.1,63.7,-100.00,SW,225,1.0,3.0,43,0.00,,,0.00,meteohub,2013-06-26 01:12:00,
2013-06-25 20:14:00,89.1,63.7,-100.00,SW,225,1.0,3.0,43,0.00,,,0.00,meteohub,2013-06-26 01:14:00,
2013-06-25 20:16:00,89.1,63.7,-100.00,SW,225,1.0,3.0,43,0.00,,,0.00,meteohub,2013-06-26 01:16:00,
2013-06-25 20:17:00,89.1,63.7,-100.00,SW,225,1.0,3.0,43,0.00,,,0.00,meteohub,2013-06-26 01:17:00,
2013-06-25 20:18:00,88.9,63.5,-100.00,SSW,203,6.0,6.0,43,0.00,,,0.00,meteohub,2013-06-26 01:18:00,
2013-06-25 20:22:00,88.7,63.3,-100.00,SW,225,0.0,6.0,43,0.00,,,0.00,meteohub,2013-06-26 01:22:00,
2013-06-25 20:24:00,88.5,63.1,-100.00,SSE,158,3.0,6.0,43,0.00,,,0.00,meteohub,2013-06-26 01:24:00,
2013-06-25 20:28:00,88.5,63.1,-100.00,SE,135,1.0,6.0,43,0.00,,,0.00,meteohub,2013-06-26 01:28:00,
2013-06-25 20:30:00,88.5,63.9,-100.00,North,0,4.0,6.0,44,0.00,,,0.00,meteohub,2013-06-26 01:30:00,
2013-06-25 20:32:00,88.3,63.7,-100.00,ESE,113,2.0,6.0,44,0.00,,,0.00,meteohub,2013-06-26 01:32:00,
2013-06-25 20:34:00,88.3,63.7,-100.00,ENE,68,5.0,6.0,44,0.00,,,0.00,meteohub,2013-06-26 01:34:00,
2013-06-25 20:36:00,88.3,63.7,-100.00,ESE,113,4.0,5.0,44,0.00,,,0.00,meteohub,2013-06-26 01:36:00,
2013-06-25 20:38:00,88.2,63.5,-100.00,SE,135,0.0,5.0,44,0.00,,,0.00,meteohub,2013-06-26 01:38:00,
2013-06-25 20:40:00,88.2,63.5,-100.00,SSW,203,0.0,5.0,44,0.00,,,0.00,meteohub,2013-06-26 01:40:00,
2013-06-25 20:42:00,88.0,63.3,-100.00,SSW,203,0.0,5.0,44,0.00,,,0.00,meteohub,2013-06-26 01:42:00,
2013-06-25 20:46:00,88.0,63.3,-100.00,SW,225,0.0,5.0,44,0.00,,,0.00,meteohub,2013-06-26 01:46:00,
2013-06-25 20:48:00,88.0,63.3,-100.00,SW,225,2.0,5.0,44,0.00,,,0.00,meteohub,2013-06-26 01:48:00,
2013-06-25 20:50:00,87.6,63.0,-100.00,SW,225,2.0,5.0,44,0.00,,,0.00,meteohub,2013-06-26 01:50:00,
2013-06-25 20:52:00,87.6,63.0,-100.00,ENE,68,0.0,5.0,44,0.00,,,0.00,meteohub,2013-06-26 01:52:00,
2013-06-25 20:54:00,87.6,63.7,-100.00,South,180,1.0,5.0,45,0.00,,,0.00,meteohub,2013-06-26 01:54:00,
2013-06-25 20:58:00,87.6,63.7,-100.00,SSE,158,0.0,2.0,45,0.00,,,0.00,meteohub,2013-06-26 01:58:00,
2013-06-25 21:02:00,87.3,64.6,-100.00,SE,135,2.0,3.0,47,0.00,,,0.00,meteohub,2013-06-26 02:02:00,
2013-06-25 21:04:00,87.1,64.4,-100.00,ESE,113,2.0,3.0,47,0.00,,,0.00,meteohub,2013-06-26 02:04:00,
2013-06-25 21:08:00,87.1,64.9,-100.00,East,90,0.0,4.0,48,0.00,,,0.00,meteohub,2013-06-26 02:08:00,
2013-06-25 21:10:00,87.1,64.9,-100.00,SSE,158,3.0,4.0,48,0.00,,,0.00,meteohub,2013-06-26 02:10:00,
2013-06-25 21:14:00,86.7,65.3,-100.00,SW,225,5.0,5.0,49,0.00,,,0.00,meteohub,2013-06-26 02:14:00,
2013-06-25 21:16:00,86.7,65.8,-100.00,ESE,113,3.0,4.0,50,0.00,,,0.00,meteohub,2013-06-26 02:16:00,
2013-06-25 21:17:00,86.7,65.8,-100.00,ESE,113,3.0,4.0,50,0.00,,,0.00,meteohub,2013-06-26 02:17:00,
2013-06-25 21:20:00,86.7,66.4,-100.00,SSE,158,2.0,5.0,51,0.00,,,0.00,meteohub,2013-06-26 02:20:00,
2013-06-25 21:22:00,86.5,66.7,-100.00,SE,135,1.0,5.0,52,0.00,,,0.00,meteohub,2013-06-26 02:22:00,
2013-06-25 21:24:00,86.5,67.5,-100.00,ESE,113,2.0,5.0,53,0.00,,,0.00,meteohub,2013-06-26 02:24:00,
2013-06-25 21:26:00,86.4,67.3,-100.00,SSW,203,6.0,6.0,53,0.00,,,0.00,meteohub,2013-06-26 02:26:00,
2013-06-25 21:32:00,86.0,67.5,-100.00,SW,225,3.0,6.0,54,0.00,,,0.00,meteohub,2013-06-26 02:32:00,
2013-06-25 21:34:00,85.8,67.3,-100.00,SW,225,1.0,6.0,54,0.00,,,0.00,meteohub,2013-06-26 02:34:00,
2013-06-25 21:36:00,85.8,67.3,-100.00,East,90,3.0,6.0,54,0.00,,,0.00,meteohub,2013-06-26 02:36:00,
2013-06-25 21:42:00,85.6,68.2,-100.00,SE,135,3.0,6.0,56,0.00,,,0.00,meteohub,2013-06-26 02:42:00,
2013-06-25 21:47:00,85.3,68.4,-100.00,ESE,113,1.0,3.0,57,0.00,,,0.00,meteohub,2013-06-26 02:47:00,
2013-06-25 21:49:00,85.3,68.4,-100.00,SSE,158,1.0,3.0,57,0.00,,,0.00,meteohub,2013-06-26 02:49:00,
2013-06-25 21:51:00,85.3,68.4,-100.00,SSE,158,1.0,3.0,57,0.00,,,0.00,meteohub,2013-06-26 02:51:00,
2013-06-25 21:57:00,84.9,68.5,-100.00,SSW,203,2.0,3.0,58,0.00,,,0.00,meteohub,2013-06-26 02:57:00,
2013-06-25 21:59:00,84.9,68.5,-100.00,SSE,158,2.0,3.0,58,0.00,,,0.00,meteohub,2013-06-26 02:59:00,
2013-06-25 22:01:00,84.7,68.9,-100.00,ENE,68,2.0,3.0,59,0.00,,,0.00,meteohub,2013-06-26 03:01:00,
2013-06-25 22:03:00,84.7,68.9,-100.00,ESE,113,2.0,3.0,59,0.00,,,0.00,meteohub,2013-06-26 03:03:00,
2013-06-25 22:05:00,84.6,68.7,-100.00,South,180,2.0,3.0,59,0.00,,,0.00,meteohub,2013-06-26 03:05:00,
2013-06-25 22:11:00,84.4,68.9,-100.00,WSW,248,6.0,6.0,60,0.00,,,0.00,meteohub,2013-06-26 03:11:00,
2013-06-25 22:13:00,84.2,68.7,-100.00,ESE,113,0.0,2.0,60,0.00,,,0.00,meteohub,2013-06-26 03:13:00,
2013-06-25 22:15:00,84.0,68.7,-100.00,SSW,203,8.0,8.0,60,0.00,,,0.00,meteohub,2013-06-26 03:15:00,
2013-06-25 22:17:00,84.0,68.7,-100.00,SSW,203,0.0,6.0,60,0.00,,,0.00,meteohub,2013-06-26 03:17:00,
2013-06-25 22:19:00,84.0,68.7,-100.00,SW,225,2.0,6.0,60,0.00,,,0.00,meteohub,2013-06-26 03:19:00,
2013-06-25 22:21:00,84.0,69.1,-100.00,ESE,113,1.0,8.0,61,0.00,,,0.00,meteohub,2013-06-26 03:21:00,
2013-06-25 22:25:00,84.0,69.1,-100.00,ESE,113,1.0,8.0,61,0.00,,,0.00,meteohub,2013-06-26 03:25:00,
2013-06-25 22:27:00,83.8,68.9,-100.00,ESE,113,2.0,8.0,61,0.00,,,0.00,meteohub,2013-06-26 03:27:00,
2013-06-25 22:29:00,83.8,68.9,-100.00,SE,135,3.0,8.0,61,0.00,,,0.00,meteohub,2013-06-26 03:29:00,
2013-06-25 22:31:00,83.5,68.5,-100.00,WSW,248,1.0,8.0,61,0.00,,,0.00,meteohub,2013-06-26 03:31:00,
2013-06-25 22:32:00,83.5,68.5,-100.00,WSW,248,1.0,8.0,61,0.00,,,0.00,meteohub,2013-06-26 03:32:00,
2013-06-25 22:37:00,83.3,68.9,-100.00,SE,135,0.0,3.0,62,0.00,,,0.00,meteohub,2013-06-26 03:37:00,
2013-06-25 22:39:00,83.1,68.7,-100.00,SSW,203,5.0,5.0,62,0.00,,,0.00,meteohub,2013-06-26 03:39:00,
2013-06-25 22:41:00,83.1,68.7,-100.00,WSW,248,1.0,5.0,62,0.00,,,0.00,meteohub,2013-06-26 03:41:00,
2013-06-25 22:45:00,82.9,68.5,-100.00,East,90,2.0,5.0,62,0.00,,,0.00,meteohub,2013-06-26 03:45:00,
2013-06-25 22:47:00,82.9,68.5,-100.00,SSW,203,2.0,6.0,62,0.00,,,0.00,meteohub,2013-06-26 03:47:00,
2013-06-25 22:53:00,82.8,68.9,-100.00,South,180,0.0,6.0,63,0.00,,,0.00,meteohub,2013-06-26 03:53:00,
2013-06-25 22:55:00,82.8,68.9,-100.00,South,180,0.0,6.0,63,0.00,,,0.00,meteohub,2013-06-26 03:55:00,
2013-06-25 22:59:00,82.4,68.5,-100.00,SE,135,2.0,6.0,63,0.00,,,0.00,meteohub,2013-06-26 03:59:00,
2013-06-25 23:01:00,82.2,68.4,-100.00,SW,225,9.0,9.0,63,0.00,,,0.00,meteohub,2013-06-26 04:01:00,
2013-06-25 23:03:00,82.2,68.4,-100.00,SW,225,9.0,9.0,63,0.00,,,0.00,meteohub,2013-06-26 04:03:00,
2013-06-25 23:05:00,82.2,68.4,-100.00,SW,225,9.0,9.0,63,0.00,,,0.00,meteohub,2013-06-26 04:05:00,
2013-06-25 23:09:00,82.2,68.9,-100.00,SSW,203,3.0,9.0,64,0.00,,,0.00,meteohub,2013-06-26 04:09:00,
2013-06-25 23:13:00,82.0,68.7,-100.00,East,90,1.0,9.0,64,0.00,,,0.00,meteohub,2013-06-26 04:13:00,
2013-06-25 23:17:00,82.0,68.7,-100.00,SSE,158,4.0,9.0,64,0.00,,,0.00,meteohub,2013-06-26 04:17:00,
2013-06-25 23:19:00,81.7,68.4,-100.00,East,90,1.0,9.0,64,0.00,,,0.00,meteohub,2013-06-26 04:19:00,
2013-06-25 23:23:00,81.7,68.7,-100.00,SW,225,2.0,9.0,65,0.00,,,0.00,meteohub,2013-06-26 04:23:00,
2013-06-25 23:25:00,81.7,68.7,-100.00,SW,225,1.0,4.0,65,0.00,,,0.00,meteohub,2013-06-26 04:25:00,
2013-06-25 23:27:00,81.5,68.5,-100.00,SSW,203,6.0,6.0,65,0.00,,,0.00,meteohub,2013-06-26 04:27:00,
2013-06-25 23:29:00,81.5,68.5,-100.00,SSW,203,6.0,6.0,65,0.00,,,0.00,meteohub,2013-06-26 04:29:00,
2013-06-25 23:31:00,81.5,68.5,-100.00,ENE,68,2.0,6.0,65,0.00,,,0.00,meteohub,2013-06-26 04:31:00,
2013-06-25 23:32:00,81.5,68.5,-100.00,ENE,68,2.0,6.0,65,0.00,,,0.00,meteohub,2013-06-26 04:32:00,
2013-06-25 23:37:00,81.3,68.4,-100.00,SSW,203,3.0,6.0,65,0.00,,,0.00,meteohub,2013-06-26 04:37:00,
2013-06-25 23:39:00,81.1,68.2,-100.00,WSW,248,3.0,6.0,65,0.00,,,0.00,meteohub,2013-06-26 04:39:00,
2013-06-25 23:41:00,81.1,68.7,-100.00,SSE,158,2.0,6.0,66,0.00,,,0.00,meteohub,2013-06-26 04:41:00,
2013-06-25 23:47:00,81.0,68.5,-100.00,SE,135,0.0,3.0,66,0.00,,,0.00,meteohub,2013-06-26 04:47:00,
2013-06-25 23:49:00,81.0,68.5,-100.00,ENE,68,4.0,4.0,66,0.00,,,0.00,meteohub,2013-06-26 04:49:00,
2013-06-25 23:53:00,80.8,68.4,-100.00,SSW,203,0.0,3.0,66,0.00,,,0.00,meteohub,2013-06-26 04:53:00,
2013-06-25 23:55:00,80.8,68.4,-100.00,ESE,113,0.0,4.0,66,0.00,,,0.00,meteohub,2013-06-26 04:55:00,
2013-06-25 23:57:00,80.8,68.4,-100.00,ESE,113,0.0,4.0,66,0.00,,,0.00,meteohub,2013-06-26 04:57:00,
2013-06-25 23:59:00,80.6,68.2,-100.00,SSE,158,2.0,4.0,66,0.00,,,0.00,meteohub,2013-06-26 04:59:00,